Location: Newark
(14.9900°N, 23.6600°W)
Time: 15:53:23
(UTC+00:00)

Hubble Space Telescope - Visible Passes

Search period start: 13 November 2019 00:00
Search period end: 23 November 2019 00:00
Orbit: 536 x 540 km, 28.5° (Epoch: 13 November)

Date Brightness Start Highest point End Pass type
(mag) Time Alt. Az. Time Alt. Az. Time Alt. Az.
13 Nov 3.0 05:25:15 23° ESE 05:25:15 23° ESE 05:26:54 10° ESE visible
13 Nov 2.9 07:01:32 10° WSW 07:03:46 14° SSW 07:06:01 10° S visible
13 Nov 0.9 20:39:41 10° WSW 20:43:19 67° SW 20:43:19 67° SW visible
14 Nov 3.6 05:15:30 15° SE 05:15:30 15° SE 05:16:14 10° SE visible
14 Nov 3.2 06:53:01 10° SSW 06:53:10 10° SSW 06:53:19 10° SSW visible
14 Nov 0.7 20:29:07 10° WSW 20:33:14 73° NNW 20:33:31 69° NNE visible
15 Nov 1.1 20:18:38 10° WSW 20:22:40 54° NNW 20:23:41 42° NNE visible
16 Nov 1.6 20:08:13 10° W 20:12:08 41° NNW 20:13:49 27° NNE visible
17 Nov 2.0 19:57:53 10° W 20:01:36 32° NNW 20:03:55 19° NNE visible
18 Nov 2.3 19:47:36 10° WNW 19:51:06 26° NNW 19:53:59 13° NE visible
19 Nov 2.5 19:37:23 10° WNW 19:40:37 22° NNW 19:43:51 10° NE visible
20 Nov 2.7 19:27:13 10° WNW 19:30:09 19° NNW 19:33:05 10° NNE visible
21 Nov 2.9 19:17:05 10° NW 19:19:42 16° NNW 19:22:20 10° NNE visible
